Regional Weather Roundup
Issued by NWS Kansas City/Pleasant Hill, MO

Home | Current Version | Previous Version | Text Only | Print | Product List | Glossary On
Versions: 1 2 3 4 5 6 7 8 9 10 11 12 13 14 15 16 17 18 19 20 21 22 23 24 25 26 27 28 29 30 31 32 33 34 35 36 37 38 39 40 41 42 43 44 45 46 47 48 49 50
000
ASUS43 KEAX 180304
RWREAX

WEATHER ROUNDUP FOR EASTERN KANSAS AND NORTHWEST MISSOURI
NATIONAL WEATHER SERVICE KANSAS CITY/PLEASANT HILL MO
900 PM CST WED DEC 17 2014

KSZ040-057-103>105-MOZ028-029-037-043-180400-
...KANSAS CITY METROPOLITAN AREA...

CITY           SKY/WX    TMP DP  RH WIND       PRES   REMARKS
K.C. INTL      CLOUDY    30  23  75 E8        30.25F WCI  22
K.C. DOWNTOWN  CLOUDY    31  22  69 E7        30.26F WCI  24
LEES SUMMIT    CLOUDY    29  22  75 E6        30.26F WCI  23
OLATHE - IXD   CLOUDY    30  23  75 SE9       30.25S WCI  22
OLATHE - OJC   CLOUDY    30  22  72 SE6       30.24S WCI  24
LAWRENCE       CLOUDY    30  22  72 E6        30.26F WCI  24

$$

MOZ001>008-011>017-020>025-030>033-038>040-044>046-053-054-180400-
...NORTHERN AND CENTRAL MISSOURI...

CITY           SKY/WX    TMP DP  RH WIND       PRES   REMARKS
ST. JOSEPH     CLOUDY    30  21  69 E5        30.28R WCI  25
MOSBY            N/A     32  25  74 SE5       30.27F WCI  27
WARRENSBURG    CLOUDY    30  25  80 N5        30.26F WCI  25
WHITEMAN AFB   CLOUDY    31  24  74 NE5       30.26S WCI  26
CLINTON        LGT SNOW  32  28  86 CALM      30.25F
SEDALIA        CLOUDY    33  25  72 E5        30.26F WCI  29
WARSAW         NOT AVBL
MARSHALL       CLOUDY    32  27  80 E3        30.29F
CHILLICOTHE      N/A     30  21  69 CALM      30.31R
MOBERLY        CLOUDY    30  21  69 E3        30.30R
KIRKSVILLE     CLOUDY    26  22  84 SE5       30.30R WCI  20

$$

MOZ041-047>049-056>058-063>065-088>090-097-180400-
...EASTERN AND SOUTHERN MISSOURI...

CITY           SKY/WX    TMP DP  RH WIND       PRES   REMARKS
ST. LOUIS INTL CLOUDY    32  24  72 NE6       30.30R WCI  26
SPIRIT OF STL  CLOUDY   N/A N/A N/A NE6       30.29R
COLUMBIA       CLOUDY    32  26  78 E5        30.27F WCI  27
JEFFERSON CITY CLOUDY    35  24  64 NE5       30.30R WCI  31
MEXICO         CLOUDY    32  28  86 E3        30.30R
HANNIBAL       CLOUDY    27  21  80 CALM      30.32R
ROLLA          CLOUDY    33  24  69 N3        30.24S
LEBANON        LGT SNOW  32  28  86 E3        30.25F
OSAGE BEACH    CLOUDY    34  23  64 NE3       30.27S
SPRINGFIELD    LGT SNOW  33  32  96 E3        30.22F FOG
BRANSON        LGT RAIN  32  32 100 CALM      30.23F
NEVADA         CLOUDY    30  28  93 E6        30.25S WCI  24
JOPLIN         LGT RAIN  33  32  96 E5        30.23R FOG     WCI  29
WEST PLAINS    RAIN      35  32  88 NW3       30.26R FOG

$$

IAZ060-094-KSZ022-034>040-054-083-096-NEZ052-066-093-180400-
...KANSAS...SOUTHEAST NEBRASKA AND IOWA...

CITY           SKY/WX    TMP DP  RH WIND       PRES   REMARKS
TOPEKA         CLOUDY    31  22  69 E5        30.26R WCI  26
MANHATTAN      CLOUDY    29  22  75 E7        30.23S WCI  22
EMPORIA        LGT SNOW  28  27  96 E8        30.20F VSB 1   WCI  20
CHANUTE        CLOUDY    31  29  92 NE7       30.22S WCI  24
WICHITA        LGT SNOW  31  28  89 E9        30.17S FOG     WCI  23
OMAHA          CLOUDY    28  19  69 SE5       30.28R WCI  23
LINCOLN        CLOUDY    26  17  68 SE8       30.27R WCI  18
FALLS CITY     CLOUDY    29  22  75 E5        30.26S WCI  24
LAMONI         CLOUDY    27  18  69 E5        30.27S WCI  22
DES MOINES     FAIR      24  16  71 NE3       30.30R

$$




USA.gov is the U.S. government's official web portal to all federal, state and local government web resources and services.